Simultaneous Nadir Overpasses (SNOs) Predictions

Prediction of SNOs between METOP-C and LANDSAT-8 Satellite Orbit:

Table of predicted SNOs for the next 14.0 days since TLE Epoch: 4/16/2022
Index Date (METOP-C) Time (METOP-C) Lat,Lon (METOP-C) SZA (METOP-C ) Date (LANDSAT-8) Time (LANDSAT-8) Lat,Lon (LANDSAT-8) SZA (LANDSAT-8 ) Distance(km) Time Diff (sec)
1 04/18/2022 16:46:36 81.13, -31.81 72.25 04/18/2022 16:47:27 81.14, -31.62 72.29 3.26 51
2 04/18/2022 17:37:14 -81.16, 136.27 107.67 04/18/2022 17:36:53 -81.16, 136.34 107.68 1.12 21
3 04/21/2022 12:20:56 81.14, 34.77 71.32 04/21/2022 12:21:40 81.14, 34.95 71.37 3.18 44
4 04/21/2022 13:11:34 -81.16,-157.16 108.60 04/21/2022 13:11:06 -81.17,-157.07 108.60 1.50 28
5 04/24/2022 07:55:17 81.14, 101.29 70.42 04/24/2022 07:55:54 81.14, 101.39 70.45 1.70 37
6 04/24/2022 08:45:55 -81.17, -90.63 109.50 04/24/2022 08:45:20 -81.17, -90.61 109.52 0.35 35
7 04/27/2022 03:29:37 81.16, 168.15 69.58 04/27/2022 03:30:07 81.16, 168.08 69.59 1.25 30
8 04/27/2022 04:20:16 -81.17, -24.14 110.39 04/27/2022 04:19:34 -81.16, -24.27 110.43 2.38 42
9 04/29/2022 23:03:58 81.14,-125.81 68.67 04/29/2022 23:04:20 81.14,-125.73 68.68 1.31 22



Historial Predications of SNOs between METOP-C and LANDSAT-8
